Regional Weather Roundup
Issued by NWS Burlington, VT

Home | Current Version | Previous Version | Text Only | Print | Product List | Glossary On
Versions: 1 2 3 4 5 6 7 8 9 10 11 12 13 14 15 16 17 18 19 20 21 22 23 24 25 26 27 28 29 30 31 32 33 34 35 36 37 38 39 40 41 42 43 44 45 46 47 48 49 50
000
ASUS41 KBTV 261630
RWRBTV
VERMONT REGIONAL WEATHER ROUNDUP
NATIONAL WEATHER SERVICE BURLINGTON VT
1100 AM EST FRI DEC 26 2014

NOTE: "FAIR" INDICATES FEW OR NO CLOUDS BELOW 12,000 FEET WITH NO
SIGNIFICANT WEATHER AND/OR OBSTRUCTIONS TO VISIBILITY.

* THESE REPORTS ARE NOT UNDER NWS QUALITY CONTROL AND/OR DO NOT
  REPORT WEATHER SUCH AS PRECIPITATION AND FOG.

VTZ001>019-261700-
_____VERMONT_____


CITY           SKY/WX    TMP DP  RH WIND       PRES   REMARKS
BURLINGTON     PTSUNNY   43  28  55 W6        30.14F
MONTPELIER     PTSUNNY   38  26  62 W9        30.13F
MORRISVILLE    CLOUDY    40  27  59 VRB6      30.12F
ST. JOHNSBURY*   N/A     42  27  55 MISG      30.08F
LYNDONVILLE*   CLOUDY    39  26  61 SW13G23   30.09F
MIDDLEBURY*    PTSUNNY   41  29  63 SW6       30.15R
RUTLAND*       MOSUNNY   39  28  65 W10G21    30.15R
SPRINGFIELD    SUNNY     40  29  64 W16G24    30.13F
HIGHGATE*      CLOUDY    40  30  69 W5        30.12F
NEWPORT*       CLOUDY    37  28  68 SW7       30.08F
BENNINGTON     CLOUDY    40  28  62 W9        30.19R
SUTTON*          N/A     37 N/A N/A MISG        N/A
MT. MANSFIELD*   N/A     25 N/A N/A CALM        N/A

_____LAKE CHAMPLAIN_____


CITY           SKY/WX    TMP DP  RH WIND       PRES   REMARKS
BURTON ISLAND*   N/A     41  32  70 S13         N/A
COLCHESTER RF*   N/A     41  32  70 W16         N/A

$$

NYZ007-026>031-035-052-083-261700-
_____NORTHERN NEW YORK_____


CITY           SKY/WX    TMP DP  RH WIND       PRES   REMARKS
PLATTSBURGH    PTSUNNY   42  29  59 VRB7      30.13F
SARANAC LAKE   CLOUDY    33  28  81 W15G22    30.09F
MASSENA        PTSUNNY   40  29  64 SW17G25   30.14S
POTSDAM*       CLOUDY    39  32  75 W16G23    30.15F
WATERTOWN      CLOUDY    41  30  65 SW12      30.20S
FT DRUM        CLOUDY    38  26  61 W10G17    30.17F
ALBANY         CLOUDY    42  28  57 W16G24    30.24R
GLENS FALLS    CLOUDY    42  30  62 SW7       30.19S

$$
NHZ002-005-011-261700-
_____NEW HAMPSHIRE_____


CITY           SKY/WX    TMP DP  RH WIND       PRES   REMARKS
LEBANON        CLOUDY    42  29  59 W9        30.11F
KEENE          CLOUDY    43  28  56 W9        30.15S
MT WASHINGTON  FOG       16  16 100 NW68G83     N/A  VSB 1/16WCI -11
PLYMOUTH       CLOUDY    44  32  64 W10G20    30.07F
WHITEFIELD     CLOUDY    40  25  55 SW6       30.08F

$$

_____REGIONAL QUEBEC LOCATIONS_____


CITY           SKY/WX    TMP DP  RH WIND       PRES   REMARKS
MONTREAL       CLOUDY    39  30  70 SW16G23   30.10S
QUEBEC CITY    MOSUNNY   37  25  60 W20G29    29.95S
SHERBROOKE     CLOUDY    37  30  75 W15G21    30.04F

_____REGIONAL ONTARIO LOCATIONS_____


CITY           SKY/WX    TMP DP  RH WIND       PRES   REMARKS
OTTAWA         PTSUNNY   41  32  70 SW15      30.11S

______KEY______
VSB  - VISIBILITY IN MILES
WCI  - WIND CHILL INDEX
HX   - HEAT INDEX
$$



USA.gov is the U.S. government's official web portal to all federal, state and local government web resources and services.